Time,TemperatureF,DewpointF,PressureIn,WindDirection,WindDirectionDegrees,WindSpeedMPH,WindSpeedGustMPH,Humidity,HourlyPrecipIn,Conditions,Clouds,dailyrainin,SolarRadiationWatts/m^2,SoftwareType,DateUTC
2013-03-17 00:07:00,32.1,31.0,29.65,North,360,0.0,1.0,94,0.00,,,0.00,0,weatherlink.com 1.10,2013-03-17 06:07:00,
2013-03-17 00:22:00,32.0,31.0,29.65,North,360,0.0,0.0,94,0.00,,,0.00,0,weatherlink.com 1.10,2013-03-17 06:22:00,
2013-03-17 00:37:00,31.9,30.0,29.65,North,360,0.0,0.0,94,0.00,,,0.00,0,weatherlink.com 1.10,2013-03-17 06:37:00,
2013-03-17 00:52:00,31.7,30.0,29.63,North,360,0.0,0.0,94,0.00,,,0.00,0,weatherlink.com 1.10,2013-03-17 06:52:00,
2013-03-17 01:07:00,31.5,30.0,29.65,North,360,0.0,0.0,94,0.00,,,0.00,0,weatherlink.com 1.10,2013-03-17 07:07:00,
2013-03-17 01:22:00,31.4,30.0,29.63,North,360,0.0,0.0,94,0.00,,,0.00,0,weatherlink.com 1.10,2013-03-17 07:22:00,
2013-03-17 01:37:00,31.4,30.0,29.63,North,360,0.0,1.0,93,0.00,,,0.00,0,weatherlink.com 1.10,2013-03-17 07:37:00,
2013-03-17 01:53:00,31.1,29.0,29.64,North,360,0.0,0.0,93,0.00,,,0.00,0,weatherlink.com 1.10,2013-03-17 07:53:00,
2013-03-17 02:08:00,31.1,30.0,29.64,North,360,0.0,0.0,94,0.00,,,0.00,0,weatherlink.com 1.10,2013-03-17 08:08:00,
2013-03-17 02:23:00,31.3,30.0,29.64,North,360,0.0,1.0,93,0.00,,,0.00,0,weatherlink.com 1.10,2013-03-17 08:23:00,
2013-03-17 02:38:00,30.8,29.0,29.64,North,360,0.0,0.0,94,0.00,,,0.00,0,weatherlink.com 1.10,2013-03-17 08:38:00,
2013-03-17 02:53:00,30.3,29.0,29.63,North,360,2.0,2.0,94,0.00,,,0.00,0,weatherlink.com 1.10,2013-03-17 08:53:00,
2013-03-17 03:08:00,30.3,29.0,29.63,North,360,1.0,2.0,94,0.00,,,0.00,0,weatherlink.com 1.10,2013-03-17 09:08:00,
2013-03-17 03:23:00,30.7,29.0,29.63,North,360,0.0,3.0,93,0.00,,,0.00,0,weatherlink.com 1.10,2013-03-17 09:23:00,
2013-03-17 03:38:00,30.4,29.0,29.62,North,360,1.0,2.0,93,0.00,,,0.00,0,weatherlink.com 1.10,2013-03-17 09:38:00,
2013-03-17 03:53:00,30.3,29.0,29.62,North,360,0.0,0.0,93,0.00,,,0.00,0,weatherlink.com 1.10,2013-03-17 09:53:00,
2013-03-17 04:08:00,29.6,28.0,29.62,North,360,0.0,0.0,93,0.00,,,0.00,0,weatherlink.com 1.10,2013-03-17 10:08:00,
2013-03-17 04:23:00,29.1,27.0,29.62,North,360,0.0,0.0,93,0.00,,,0.00,0,weatherlink.com 1.10,2013-03-17 10:23:00,
2013-03-17 04:38:00,30.6,28.0,29.62,North,360,0.0,0.0,91,0.00,,,0.00,0,weatherlink.com 1.10,2013-03-17 10:38:00,
2013-03-17 04:53:00,29.7,28.0,29.62,North,360,1.0,2.0,92,0.00,,,0.00,0,weatherlink.com 1.10,2013-03-17 10:53:00,
2013-03-17 05:08:00,29.2,27.0,29.63,North,360,0.0,2.0,92,0.00,,,0.00,0,weatherlink.com 1.10,2013-03-17 11:08:00,
2013-03-17 05:23:00,28.5,27.0,29.63,North,360,0.0,0.0,93,0.00,,,0.00,0,weatherlink.com 1.10,2013-03-17 11:23:00,
2013-03-17 05:38:00,28.4,27.0,29.64,North,360,0.0,1.0,94,0.00,,,0.00,0,weatherlink.com 1.10,2013-03-17 11:38:00,
2013-03-17 05:53:00,28.6,27.0,29.64,North,360,0.0,2.0,94,0.00,,,0.00,0,weatherlink.com 1.10,2013-03-17 11:53:00,
2013-03-17 06:08:00,28.7,27.0,29.64,North,360,0.0,2.0,92,0.00,,,0.00,0,weatherlink.com 1.10,2013-03-17 12:08:00,
2013-03-17 06:23:00,28.5,27.0,29.64,SSE,159,1.0,2.0,93,0.00,,,0.00,0,weatherlink.com 1.10,2013-03-17 12:23:00,
2013-03-17 06:38:00,28.9,27.0,29.65,North,360,1.0,2.0,92,0.00,,,0.00,0,weatherlink.com 1.10,2013-03-17 12:38:00,
2013-03-17 06:53:00,29.5,27.0,29.65,ESE,107,0.0,1.0,90,0.00,,,0.00,0,weatherlink.com 1.10,2013-03-17 12:53:00,
2013-03-17 07:08:00,28.2,26.0,29.65,North,360,0.0,0.0,92,0.00,,,0.00,0,weatherlink.com 1.10,2013-03-17 13:08:00,
2013-03-17 07:23:00,28.0,26.0,29.65,North,360,0.0,0.0,93,0.00,,,0.00,0,weatherlink.com 1.10,2013-03-17 13:23:00,
2013-03-17 07:38:00,28.1,26.0,29.65,ESE,113,0.0,0.0,93,0.00,,,0.00,11,weatherlink.com 1.10,2013-03-17 13:38:00,
2013-03-17 07:53:00,29.1,27.0,29.65,North,360,0.0,0.0,92,0.00,,,0.00,5,weatherlink.com 1.10,2013-03-17 13:53:00,
2013-03-17 08:08:00,29.3,27.0,29.65,North,360,0.0,0.0,91,0.00,,,0.00,5,weatherlink.com 1.10,2013-03-17 14:08:00,
2013-03-17 08:23:00,29.6,27.0,29.65,North,360,0.0,3.0,91,0.00,,,0.00,11,weatherlink.com 1.10,2013-03-17 14:23:00,
2013-03-17 08:38:00,30.8,29.0,29.64,North,360,0.0,0.0,92,0.00,,,0.00,37,weatherlink.com 1.10,2013-03-17 14:38:00,
2013-03-17 08:53:00,31.9,29.0,29.64,North,360,0.0,0.0,90,0.00,,,0.00,30,weatherlink.com 1.10,2013-03-17 14:53:00,
2013-03-17 09:08:00,32.7,30.0,29.64,North,360,0.0,1.0,90,0.00,,,0.00,47,weatherlink.com 1.10,2013-03-17 15:08:00,
2013-03-17 09:23:00,33.2,30.0,29.63,North,360,0.0,1.0,89,0.00,,,0.00,25,weatherlink.com 1.10,2013-03-17 15:23:00,
2013-03-17 09:38:00,33.9,31.0,29.64,North,360,1.0,2.0,88,0.00,,,0.00,39,weatherlink.com 1.10,2013-03-17 15:38:00,
2013-03-17 09:53:00,34.4,32.0,29.64,North,360,1.0,3.0,89,0.00,,,0.00,69,weatherlink.com 1.10,2013-03-17 15:53:00,
2013-03-17 10:08:00,35.6,31.0,29.65,North,360,1.0,5.0,82,0.02,,,0.02,98,weatherlink.com 1.10,2013-03-17 16:08:00,
2013-03-17 10:24:00,35.5,31.0,29.65,North,360,1.0,6.0,84,0.04,,,0.04,234,weatherlink.com 1.10,2013-03-17 16:24:00,
2013-03-17 10:38:00,36.1,32.0,29.64,WSW,249,1.0,5.0,84,0.05,,,0.05,650,weatherlink.com 1.10,2013-03-17 16:38:00,
2013-03-17 10:54:00,37.1,31.0,29.64,WNW,282,1.0,4.0,78,0.07,,,0.07,311,weatherlink.com 1.10,2013-03-17 16:54:00,
2013-03-17 11:09:00,36.6,31.0,29.65,North,360,1.0,10.0,79,0.07,,,0.09,882,weatherlink.com 1.10,2013-03-17 17:09:00,
2013-03-17 11:24:00,36.7,30.0,29.65,North,360,4.0,8.0,77,0.07,,,0.11,258,weatherlink.com 1.10,2013-03-17 17:24:00,
2013-03-17 11:39:00,35.8,29.0,29.64,North,360,2.0,6.0,77,0.06,,,0.11,153,weatherlink.com 1.10,2013-03-17 17:39:00,
2013-03-17 11:55:00,34.2,29.0,29.62,North,360,4.0,8.0,82,0.04,,,0.12,44,weatherlink.com 1.10,2013-03-17 17:55:00,
2013-03-17 12:09:00,32.5,30.0,29.64,North,360,1.0,8.0,89,0.03,,,0.12,160,weatherlink.com 1.10,2013-03-17 18:09:00,
2013-03-17 12:24:00,33.3,29.0,29.65,North,360,2.0,14.0,84,0.01,,,0.12,394,weatherlink.com 1.10,2013-03-17 18:24:00,
2013-03-17 12:39:00,34.1,30.0,29.64,North,360,1.0,8.0,84,0.01,,,0.12,258,weatherlink.com 1.10,2013-03-17 18:39:00,
2013-03-17 12:54:00,34.1,29.0,29.63,North,360,4.0,6.0,82,0.00,,,0.12,72,weatherlink.com 1.10,2013-03-17 18:54:00,
2013-03-17 13:09:00,33.9,28.0,29.63,North,360,3.0,9.0,80,0.00,,,0.12,58,weatherlink.com 1.10,2013-03-17 19:09:00,
2013-03-17 13:24:00,34.3,28.0,29.62,North,360,1.0,8.0,77,0.00,,,0.12,86,weatherlink.com 1.10,2013-03-17 19:24:00,
2013-03-17 13:39:00,35.3,28.0,29.62,North,360,3.0,7.0,76,0.00,,,0.12,297,weatherlink.com 1.10,2013-03-17 19:39:00,
2013-03-17 13:57:00,36.4,27.0,29.61,North,360,5.0,13.0,70,0.01,,,0.13,381,weatherlink.com 1.10,2013-03-17 19:57:00,
2013-03-17 14:25:00,37.1,27.0,29.58,North,360,3.0,9.0,67,0.02,,,0.14,137,weatherlink.com 1.10,2013-03-17 20:25:00,
2013-03-17 14:40:00,36.6,28.0,29.57,North,360,3.0,6.0,71,0.03,,,0.15,107,weatherlink.com 1.10,2013-03-17 20:40:00,
2013-03-17 14:55:00,36.7,27.0,29.57,North,360,1.0,13.0,69,0.03,,,0.15,204,weatherlink.com 1.10,2013-03-17 20:55:00,
2013-03-17 15:10:00,39.1,27.0,29.56,North,360,3.0,19.0,62,0.01,,,0.15,232,weatherlink.com 1.10,2013-03-17 21:10:00,
2013-03-17 15:26:00,42.0,24.0,29.57,West,280,5.0,14.0,49,0.02,,,0.16,788,weatherlink.com 1.10,2013-03-17 21:26:00,
2013-03-17 15:40:00,42.9,23.0,29.57,West,259,6.0,9.0,45,0.02,,,0.17,151,weatherlink.com 1.10,2013-03-17 21:40:00,
2013-03-17 15:56:00,41.7,22.0,29.57,WNW,285,4.0,9.0,45,0.02,,,0.17,810,weatherlink.com 1.10,2013-03-17 21:56:00,
2013-03-17 16:11:00,43.1,18.0,29.57,WSW,258,4.0,10.0,37,0.02,,,0.17,156,weatherlink.com 1.10,2013-03-17 22:11:00,
2013-03-17 16:27:00,43.2,16.0,29.57,WNW,297,3.0,12.0,34,0.01,,,0.17,701,weatherlink.com 1.10,2013-03-17 22:27:00,
2013-03-17 16:56:00,42.7,15.0,29.57,NNW,346,7.0,12.0,33,0.00,,,0.17,526,weatherlink.com 1.10,2013-03-17 22:56:00,
2013-03-17 17:11:00,44.0,16.0,29.57,North,360,9.0,13.0,32,0.00,,,0.17,494,weatherlink.com 1.10,2013-03-17 23:11:00,
2013-03-17 17:27:00,41.6,13.0,29.57,North,360,3.0,12.0,31,0.00,,,0.17,72,weatherlink.com 1.10,2013-03-17 23:27:00,
2013-03-17 17:41:00,41.8,12.0,29.58,North,360,2.0,13.0,30,0.00,,,0.17,42,weatherlink.com 1.10,2013-03-17 23:41:00,
2013-03-17 17:56:00,41.3,13.0,29.59,North,360,4.0,14.0,32,0.00,,,0.17,47,weatherlink.com 1.10,2013-03-17 23:56:00,
2013-03-17 18:12:00,40.5,14.0,29.60,North,360,3.0,9.0,34,0.00,,,0.17,16,weatherlink.com 1.10,2013-03-18 00:12:00,
2013-03-17 18:27:00,40.3,15.0,29.61,North,360,3.0,10.0,35,0.00,,,0.17,28,weatherlink.com 1.10,2013-03-18 00:27:00,
2013-03-17 18:42:00,40.6,14.0,29.61,North,360,8.0,12.0,34,0.00,,,0.17,60,weatherlink.com 1.10,2013-03-18 00:42:00,
2013-03-17 18:57:00,40.4,15.0,29.61,North,360,2.0,10.0,35,0.00,,,0.17,23,weatherlink.com 1.10,2013-03-18 00:57:00,
2013-03-17 19:12:00,39.9,13.0,29.62,North,360,1.0,12.0,34,0.00,,,0.17,0,weatherlink.com 1.10,2013-03-18 01:12:00,
2013-03-17 19:27:00,39.3,14.0,29.63,North,360,2.0,8.0,35,0.00,,,0.17,0,weatherlink.com 1.10,2013-03-18 01:27:00,
2013-03-17 19:42:00,38.4,11.0,29.65,North,360,5.0,7.0,32,0.00,,,0.17,0,weatherlink.com 1.10,2013-03-18 01:42:00,
2013-03-17 19:57:00,38.3,11.0,29.65,North,360,3.0,10.0,32,0.00,,,0.17,0,weatherlink.com 1.10,2013-03-18 01:57:00,
2013-03-17 20:12:00,38.0,10.0,29.66,North,360,3.0,11.0,32,0.00,,,0.17,0,weatherlink.com 1.10,2013-03-18 02:12:00,
2013-03-17 20:27:00,37.6,13.0,29.67,North,360,3.0,9.0,37,0.00,,,0.17,0,weatherlink.com 1.10,2013-03-18 02:27:00,
2013-03-17 20:43:00,37.2,15.0,29.67,North,360,2.0,12.0,41,0.00,,,0.17,0,weatherlink.com 1.10,2013-03-18 02:43:00,
2013-03-17 20:58:00,36.7,17.0,29.69,North,360,3.0,9.0,44,0.00,,,0.17,0,weatherlink.com 1.10,2013-03-18 02:58:00,
2013-03-17 21:13:00,35.8,18.0,29.70,North,360,0.0,8.0,48,0.00,,,0.17,0,weatherlink.com 1.10,2013-03-18 03:13:00,
2013-03-17 21:28:00,35.3,17.0,29.71,North,360,2.0,4.0,48,0.00,,,0.17,0,weatherlink.com 1.10,2013-03-18 03:28:00,
2013-03-17 21:43:00,35.9,17.0,29.71,North,360,3.0,10.0,47,0.00,,,0.17,0,weatherlink.com 1.10,2013-03-18 03:43:00,
2013-03-17 21:58:00,35.6,17.0,29.72,North,360,6.0,6.0,47,0.00,,,0.17,0,weatherlink.com 1.10,2013-03-18 03:58:00,
2013-03-17 22:13:00,35.4,18.0,29.71,North,360,3.0,9.0,49,0.00,,,0.17,0,weatherlink.com 1.10,2013-03-18 04:13:00,
2013-03-17 22:28:00,35.2,17.0,29.72,North,360,2.0,9.0,48,0.00,,,0.17,0,weatherlink.com 1.10,2013-03-18 04:28:00,
2013-03-17 22:43:00,34.7,16.0,29.73,North,360,1.0,6.0,47,0.00,,,0.17,0,weatherlink.com 1.10,2013-03-18 04:43:00,
2013-03-17 22:59:00,34.8,17.0,29.74,North,360,1.0,4.0,49,0.00,,,0.17,0,weatherlink.com 1.10,2013-03-18 04:59:00,
2013-03-17 23:14:00,34.6,17.0,29.73,North,360,1.0,3.0,49,0.00,,,0.17,0,weatherlink.com 1.10,2013-03-18 05:14:00,
2013-03-17 23:29:00,34.4,16.0,29.73,North,360,3.0,6.0,47,0.00,,,0.17,0,weatherlink.com 1.10,2013-03-18 05:29:00,
2013-03-17 23:44:00,34.4,16.0,29.74,North,360,2.0,6.0,47,0.00,,,0.17,0,weatherlink.com 1.10,2013-03-18 05:44:00,
2013-03-17 23:59:00,34.9,13.0,29.74,North,360,2.0,8.0,41,0.00,,,0.17,0,weatherlink.com 1.10,2013-03-18 05:59:00,